STARLINK-2250 (48593 NORAD) Tracking and Keplerian Element Data

This shows tracking and keplerian element data for the satellite.

Feedback or suggestion? Click here.




ElementValue
Catalog48593
NameSTARLINK-2250
Epoch Orbit2319
Epoch Day287.99524101
Epoch Year2021
RAAN154.3409
Inclination53.0518
Eccentricity0.000136
Argument of Perigee42.0272
Mean Anonmoly318.0821
Mean Motion15.0640477
Decay Rate2.137E-05
L11 48593U 21041AS 21287.99524101 .00002137 00000-0 16229-3 0 9994
L22 48593 53.0518 154.3409 0001360 42.0272 318.0821 15.06404770 23198

Live tracking and technical data element details for STARLINK-2250 (NORAD 48593). STARLINK-2250 can be tracked NOW for your location showing map with azimuth and elevation plus other details from your city location.

Track the satellite on the map from your city or location and see movement details for azimuth, elevation, latitude, longitude, range, height, and movement on the map or in text.







IsCatalogInMostPopularTable: catalog: 48593, numindb: 40
Update: records affected: 1



GetName: 48593 STARLINK-2250

Hit Count: updated at: Tue, 19 Oct 2021 09:27:19 GMT